| time (UTC) | temp F | wind direction | speed MPH | gust MPH | rain 1hr in | rain 24hr in | rain mn in | humidity % | barometer mb |
| 20260505174837 | 83 | 315 | 2.0 | 4.0 | 0.00 | 0.00 | 0.00 | 38 | 990.6 |
| 20260505174338 | 83 | 315 | 2.0 | 5.0 | 0.00 | 0.00 | 0.00 | 37 | 990.6 |
| 20260505173838 | 83 | 290 | 2.0 | 6.0 | 0.00 | 0.00 | 0.00 | 38 | 990.8 |
| 20260505173339 | 83 | 223 | 1.0 | 6.0 | 0.00 | 0.00 | 0.00 | 38 | 990.8 |
| 20260505172837 | 83 | 271 | 2.0 | 6.0 | 0.00 | 0.00 | 0.00 | 39 | 990.8 |
| 20260505172338 | 83 | 296 | 2.0 | 6.0 | 0.00 | 0.00 | 0.00 | 38 | 990.9 |
| 20260505171837 | 83 | 296 | 2.0 | 5.0 | 0.00 | 0.00 | 0.00 | 40 | 990.9 |
| 20260505171338 | 83 | 19 | 1.0 | 3.0 | 0.00 | 0.00 | 0.00 | 38 | 990.9 |
| 20260505170838 | 83 | 227 | 1.0 | 3.0 | 0.00 | 0.00 | 0.00 | 39 | 990.9 |
| 20260505170337 | 83 | 211 | 2.0 | 3.0 | 0.00 | 0.00 | 0.00 | 38 | 991.0 |
| 20260505165837 | 83 | 246 | 2.0 | 4.0 | 0.00 | 0.00 | 0.00 | 41 | 991.1 |
| 20260505165338 | 83 | 259 | 1.0 | 4.0 | 0.00 | 0.00 | 0.00 | 38 | 991.3 |
| 20260505164838 | 83 | 178 | 1.0 | 5.0 | 0.00 | 0.00 | 0.00 | 39 | 991.2 |
| 20260505163838 | 82 | 236 | 1.0 | 4.0 | 0.00 | 0.00 | 0.00 | 40 | 991.4 |
| 20260505163332 | 82 | 226 | 1.0 | 3.0 | 0.00 | 0.00 | 0.00 | 42 | 991.6 |
| 20260505162826 | 81 | 224 | 1.0 | 3.0 | 0.00 | 0.00 | 0.00 | 42 | 991.8 |
| 20260505162321 | 80 | 305 | 1.0 | 4.0 | 0.00 | 0.00 | 0.00 | 42 | 991.7 |
| 20260505160803 | 79 | 109 | 1.0 | 3.0 | 0.00 | 0.00 | 0.00 | 44 | 992.2 |
| 20260505153220 | 77 | 248 | 2.0 | 4.0 | 0.00 | 0.00 | 0.00 | 46 | 993.0 |
| 20260505152714 | 77 | 228 | 2.0 | 4.0 | 0.00 | 0.00 | 0.00 | 46 | 993.0 |
| 20260505151157 | 76 | 240 | 1.0 | 4.0 | 0.00 | 0.00 | 0.00 | 49 | 993.1 |
| 20260505150650 | 75 | 300 | 2.0 | 6.0 | 0.00 | 0.00 | 0.00 | 48 | 993.1 |
| 20260505150144 | 75 | 304 | 2.0 | 6.0 | 0.00 | 0.00 | 0.00 | 49 | 993.1 |
| 20260505124909 | 61 | 355 | 0.0 | 0.0 | 0.00 | 0.00 | 0.00 | 72 | 993.4 |
| 20260505124402 | 61 | 355 | 0.0 | 0.0 | 0.00 | 0.00 | 0.00 | 72 | 993.6 |
| 20260505123857 | 60 | 355 | 0.0 | 0.0 | 0.00 | 0.00 | 0.00 | 72 | 993.5 |
| 20260505123351 | 59 | 355 | 0.0 | 0.0 | 0.00 | 0.00 | 0.00 | 73 | 993.5 |
| 20260505122845 | 58 | 355 | 0.0 | 0.0 | 0.00 | 0.00 | 0.00 | 74 | 993.5 |
| 20260505121833 | 56 | 355 | 0.0 | 0.0 | 0.00 | 0.00 | 0.00 | 78 | 993.9 |
| 20260505121327 | 56 | 355 | 0.0 | 0.0 | 0.00 | 0.00 | 0.00 | 79 | 993.9 |
| 20260505120821 | 55 | 355 | 0.0 | 0.0 | 0.00 | 0.00 | 0.00 | 80 | 994.0 |
| 20260505120316 | 55 | 355 | 0.0 | 0.0 | 0.00 | 0.00 | 0.00 | 81 | 993.9 |
| 20260505115808 | 55 | 355 | 0.0 | 0.0 | 0.00 | 0.00 | 0.00 | 81 | 993.9 |
| 20260505115305 | 54 | 355 | 0.0 | 0.0 | 0.00 | 0.00 | 0.00 | 82 | 993.8 |
| 20260505114757 | 54 | 355 | 0.0 | 0.0 | 0.00 | 0.00 | 0.00 | 82 | 993.8 |
| 20260505114251 | 54 | 355 | 0.0 | 0.0 | 0.00 | 0.00 | 0.00 | 81 | 993.8 |
| 20260505113745 | 53 | 355 | 0.0 | 0.0 | 0.00 | 0.00 | 0.00 | 82 | 993.7 |
| 20260505113239 | 53 | 355 | 0.0 | 0.0 | 0.00 | 0.00 | 0.00 | 82 | 993.6 |
| 20260505112733 | 53 | 355 | 0.0 | 0.0 | 0.00 | 0.00 | 0.00 | 82 | 993.7 |
| 20260505112227 | 53 | 355 | 0.0 | 0.0 | 0.00 | 0.00 | 0.00 | 82 | 993.7 |
| 20260505111721 | 52 | 355 | 0.0 | 0.0 | 0.00 | 0.00 | 0.00 | 82 | 993.6 |
| 20260505110709 | 52 | 355 | 0.0 | 0.0 | 0.00 | 0.00 | 0.00 | 83 | 993.5 |
| 20260505110208 | 52 | 355 | 0.0 | 0.0 | 0.00 | 0.00 | 0.00 | 82 | 993.3 |
| 20260505102205 | 51 | 355 | 0.0 | 0.0 | 0.00 | 0.00 | 0.00 | 80 | 993.5 |
| 20260505101705 | 51 | 355 | 0.0 | 0.0 | 0.00 | 0.00 | 0.00 | 80 | 993.5 |
| 20260505101205 | 51 | 355 | 0.0 | 0.0 | 0.00 | 0.00 | 0.00 | 79 | 993.5 |
| 20260505100702 | 51 | 355 | 0.0 | 0.0 | 0.00 | 0.00 | 0.00 | 80 | 993.5 |
| 20260505100200 | 52 | 355 | 0.0 | 0.0 | 0.00 | 0.00 | 0.00 | 80 | 993.5 |
| 20260505095701 | 52 | 355 | 0.0 | 0.0 | 0.00 | 0.00 | 0.00 | 79 | 993.5 |
| 20260505095201 | 52 | 355 | 0.0 | 0.0 | 0.00 | 0.00 | 0.00 | 79 | 993.4 |
| 20260505094701 | 52 | 355 | 0.0 | 0.0 | 0.00 | 0.00 | 0.00 | 79 | 993.4 |
| 20260505094201 | 52 | 355 | 0.0 | 0.0 | 0.00 | 0.00 | 0.00 | 79 | 993.4 |
| 20260505093700 | 52 | 355 | 0.0 | 0.0 | 0.00 | 0.00 | 0.00 | 78 | 993.5 |
| 20260505092702 | 52 | 355 | 0.0 | 0.0 | 0.00 | 0.00 | 0.00 | 79 | 993.5 |
| 20260505091657 | 52 | 355 | 0.0 | 0.0 | 0.00 | 0.00 | 0.00 | 78 | 993.7 |
| 20260505091156 | 52 | 355 | 0.0 | 0.0 | 0.00 | 0.00 | 0.00 | 78 | 993.6 |
| 20260505090656 | 52 | 355 | 0.0 | 0.0 | 0.00 | 0.00 | 0.00 | 78 | 993.6 |
| 20260505090155 | 52 | 355 | 0.0 | 0.0 | 0.00 | 0.00 | 0.00 | 79 | 993.6 |
| 20260505085652 | 52 | 355 | 0.0 | 0.0 | 0.00 | 0.00 | 0.00 | 78 | 993.6 |
| 20260505085154 | 51 | 355 | 0.0 | 0.0 | 0.00 | 0.00 | 0.00 | 78 | 993.5 |
| 20260505084650 | 51 | 355 | 0.0 | 0.0 | 0.00 | 0.00 | 0.00 | 79 | 993.6 |
| 20260505084150 | 51 | 355 | 0.0 | 0.0 | 0.00 | 0.00 | 0.00 | 78 | 993.6 |
| 20260505083649 | 51 | 355 | 0.0 | 0.0 | 0.00 | 0.00 | 0.00 | 78 | 993.6 |
| 20260505083149 | 52 | 355 | 0.0 | 0.0 | 0.00 | 0.00 | 0.00 | 78 | 993.6 |
| 20260505082648 | 52 | 355 | 0.0 | 0.0 | 0.00 | 0.00 | 0.00 | 78 | 993.7 |
| 20260505081644 | 52 | 355 | 0.0 | 0.0 | 0.00 | 0.00 | 0.00 | 77 | 993.7 |
| 20260505081137 | 51 | 355 | 0.0 | 0.0 | 0.00 | 0.00 | 0.00 | 77 | 993.7 |
| 20260505080631 | 51 | 355 | 0.0 | 0.0 | 0.00 | 0.00 | 0.00 | 78 | 993.8 |
| 20260505075619 | 51 | 355 | 0.0 | 0.0 | 0.00 | 0.00 | 0.00 | 78 | 993.8 |
| 20260505074606 | 51 | 355 | 0.0 | 0.0 | 0.00 | 0.00 | 0.00 | 77 | 993.8 |
| 20260505073554 | 52 | 355 | 0.0 | 0.0 | 0.00 | 0.00 | 0.00 | 77 | 994.0 |
| 20260505073048 | 52 | 355 | 0.0 | 0.0 | 0.00 | 0.00 | 0.00 | 76 | 993.9 |
| 20260505072542 | 52 | 355 | 0.0 | 0.0 | 0.00 | 0.00 | 0.00 | 77 | 993.9 |
| 20260505072036 | 52 | 355 | 0.0 | 0.0 | 0.00 | 0.00 | 0.00 | 77 | 993.9 |
| 20260505071531 | 52 | 355 | 0.0 | 0.0 | 0.00 | 0.00 | 0.00 | 77 | 993.9 |
| 20260505071025 | 52 | 355 | 0.0 | 0.0 | 0.00 | 0.00 | 0.00 | 76 | 993.9 |
| 20260505070519 | 52 | 355 | 0.0 | 0.0 | 0.00 | 0.00 | 0.00 | 76 | 994.0 |
| 20260505070013 | 52 | 355 | 0.0 | 0.0 | 0.00 | 0.00 | 0.00 | 76 | 994.0 |
| 20260505065506 | 52 | 355 | 0.0 | 0.0 | 0.00 | 0.00 | 0.00 | 76 | 994.1 |
| 20260505065000 | 52 | 355 | 0.0 | 0.0 | 0.00 | 0.00 | 0.00 | 76 | 994.1 |
| 20260505064454 | 52 | 355 | 0.0 | 0.0 | 0.00 | 0.00 | 0.00 | 76 | 994.1 |
| 20260505063948 | 52 | 355 | 0.0 | 0.0 | 0.00 | 0.00 | 0.00 | 76 | 994.2 |
| 20260505063443 | 52 | 355 | 0.0 | 0.0 | 0.00 | 0.00 | 0.00 | 76 | 994.3 |
| 20260505062430 | 52 | 355 | 0.0 | 0.0 | 0.00 | 0.00 | 0.00 | 76 | 994.4 |
| 20260505061925 | 52 | 355 | 0.0 | 0.0 | 0.00 | 0.00 | 0.00 | 76 | 994.2 |
| 20260505061418 | 52 | 355 | 0.0 | 0.0 | 0.00 | 0.00 | 0.00 | 76 | 994.2 |
| 20260505060912 | 52 | 355 | 0.0 | 0.0 | 0.00 | 0.00 | 0.00 | 76 | 994.4 |
| 20260505060406 | 52 | 355 | 0.0 | 0.0 | 0.00 | 0.00 | 0.00 | 76 | 994.2 |
| 20260505055355 | 52 | 355 | 0.0 | 0.0 | 0.00 | 0.00 | 0.00 | 76 | 994.4 |
| 20260505054849 | 52 | 355 | 0.0 | 0.0 | 0.00 | 0.00 | 0.00 | 76 | 994.4 |
| 20260505054343 | 52 | 355 | 0.0 | 0.0 | 0.00 | 0.00 | 0.00 | 75 | 994.5 |
| 20260505053837 | 52 | 355 | 0.0 | 0.0 | 0.00 | 0.00 | 0.00 | 76 | 994.4 |
| 20260505053330 | 52 | 355 | 0.0 | 0.0 | 0.00 | 0.00 | 0.00 | 75 | 994.4 |
| 20260505052825 | 52 | 355 | 0.0 | 0.0 | 0.00 | 0.00 | 0.00 | 75 | 994.4 |
| 20260505052319 | 52 | 355 | 0.0 | 0.0 | 0.00 | 0.00 | 0.00 | 75 | 994.4 |
| 20260505051813 | 52 | 355 | 0.0 | 0.0 | 0.00 | 0.00 | 0.00 | 75 | 994.4 |
| 20260505051306 | 53 | 355 | 0.0 | 0.0 | 0.00 | 0.00 | 0.00 | 74 | 994.4 |
| 20260505050800 | 53 | 355 | 0.0 | 0.0 | 0.00 | 0.00 | 0.00 | 74 | 994.4 |
| 20260505041155 | 53 | 355 | 0.0 | 0.0 | 0.00 | 0.00 | 0.00 | 73 | 994.3 |
| 20260505040648 | 53 | 355 | 0.0 | 2.0 | 0.00 | 0.00 | 0.00 | 74 | 994.3 |
| 20260505040143 | 53 | 355 | 0.0 | 2.0 | 0.00 | 0.00 | 0.00 | 73 | 994.2 |
| 20260505035638 | 53 | 355 | 0.0 | 2.0 | 0.00 | 0.00 | 0.00 | 73 | 994.1 |
| 20260505035132 | 54 | 355 | 0.0 | 2.0 | 0.00 | 0.00 | 0.00 | 72 | 994.1 |
| 20260505034627 | 54 | 355 | 0.0 | 2.0 | 0.00 | 0.00 | 0.00 | 73 | 994.1 |
| 20260505033108 | 55 | 355 | 0.0 | 2.0 | 0.00 | 0.00 | 0.00 | 71 | 994.0 |
| 20260505032602 | 55 | 355 | 0.0 | 2.0 | 0.00 | 0.00 | 0.00 | 71 | 993.9 |
| 20260505032056 | 55 | 355 | 0.0 | 1.0 | 0.00 | 0.00 | 0.00 | 71 | 993.9 |
| 20260505031044 | 56 | 355 | 0.0 | 2.0 | 0.00 | 0.00 | 0.00 | 70 | 993.9 |
| 20260505030537 | 56 | 355 | 0.0 | 1.0 | 0.00 | 0.00 | 0.00 | 69 | 994.0 |
| 20260505030032 | 56 | 355 | 0.0 | 3.0 | 0.00 | 0.00 | 0.00 | 69 | 993.9 |
| 20260505025525 | 56 | 355 | 0.0 | 3.0 | 0.00 | 0.00 | 0.00 | 69 | 994.0 |
| 20260505025019 | 56 | 355 | 0.0 | 1.0 | 0.00 | 0.00 | 0.00 | 68 | 994.0 |
| 20260505024514 | 56 | 355 | 0.0 | 2.0 | 0.00 | 0.00 | 0.00 | 69 | 993.9 |
| 20260505024008 | 56 | 355 | 0.0 | 2.0 | 0.00 | 0.00 | 0.00 | 69 | 993.9 |
| 20260505023502 | 56 | 355 | 0.0 | 1.0 | 0.00 | 0.00 | 0.00 | 69 | 993.9 |
| 20260505022955 | 55 | 355 | 0.0 | 1.0 | 0.00 | 0.00 | 0.00 | 68 | 993.8 |
| 20260505022449 | 55 | 355 | 0.0 | 3.0 | 0.00 | 0.00 | 0.00 | 68 | 993.7 |
| 20260505021949 | 55 | 355 | 0.0 | 3.0 | 0.00 | 0.00 | 0.00 | 69 | 993.7 |
| 20260505021447 | 55 | 313 | 0.0 | 2.0 | 0.00 | 0.00 | 0.00 | 69 | 993.7 |
| 20260505020947 | 55 | 313 | 0.0 | 2.0 | 0.00 | 0.00 | 0.00 | 69 | 993.7 |
| 20260505020448 | 55 | 313 | 0.0 | 0.0 | 0.00 | 0.00 | 0.00 | 69 | 993.7 |
| 20260505015946 | 55 | 313 | 0.0 | 0.0 | 0.00 | 0.00 | 0.00 | 69 | 993.6 |
| 20260505015443 | 55 | 313 | 0.0 | 0.0 | 0.00 | 0.00 | 0.00 | 70 | 993.6 |
| 20260505014443 | 55 | 313 | 0.0 | 0.0 | 0.00 | 0.00 | 0.00 | 69 | 993.6 |
| 20260505013940 | 55 | 313 | 0.0 | 0.0 | 0.00 | 0.00 | 0.00 | 68 | 993.5 |
| 20260505013439 | 55 | 313 | 0.0 | 0.0 | 0.00 | 0.00 | 0.00 | 68 | 993.4 |
| 20260505012936 | 56 | 313 | 0.0 | 0.0 | 0.00 | 0.00 | 0.00 | 68 | 993.3 |
| 20260505012436 | 56 | 313 | 0.0 | 0.0 | 0.00 | 0.00 | 0.00 | 68 | 993.3 |
| 20260505011936 | 56 | 313 | 0.0 | 0.0 | 0.00 | 0.00 | 0.00 | 67 | 993.2 |
| 20260505011436 | 56 | 313 | 0.0 | 0.0 | 0.00 | 0.00 | 0.00 | 67 | 993.1 |
| 20260505010936 | 56 | 313 | 0.0 | 0.0 | 0.00 | 0.00 | 0.00 | 67 | 993.1 |
| 20260505010435 | 57 | 313 | 0.0 | 0.0 | 0.00 | 0.00 | 0.00 | 66 | 993.1 |
| 20260505005935 | 57 | 313 | 0.0 | 0.0 | 0.00 | 0.00 | 0.00 | 66 | 993.1 |
| 20260505005432 | 57 | 313 | 0.0 | 1.0 | 0.00 | 0.00 | 0.00 | 65 | 993.1 |
| 20260505003931 | 58 | 313 | 0.0 | 0.0 | 0.00 | 0.00 | 0.00 | 61 | 992.7 |
| 20260505003431 | 58 | 313 | 0.0 | 0.0 | 0.00 | 0.00 | 0.00 | 62 | 992.7 |
| 20260505002930 | 59 | 313 | 0.0 | 0.0 | 0.00 | 0.00 | 0.00 | 61 | 992.7 |
| 20260505002430 | 59 | 313 | 0.0 | 0.0 | 0.00 | 0.00 | 0.00 | 61 | 992.5 |
| 20260505001931 | 59 | 313 | 0.0 | 1.0 | 0.00 | 0.00 | 0.00 | 60 | 992.4 |
| 20260505001432 | 60 | 313 | 0.0 | 1.0 | 0.00 | 0.00 | 0.00 | 59 | 992.3 |
| 20260505000927 | 60 | 313 | 0.0 | 0.0 | 0.00 | 0.00 | 0.00 | 58 | 992.2 |
| 20260504235928 | 61 | 313 | 0.0 | 0.0 | 0.00 | 0.00 | 0.00 | 58 | 992.1 |
| 20260504235426 | 61 | 313 | 0.0 | 0.0 | 0.00 | 0.00 | 0.00 | 58 | 992.0 |
| 20260504234927 | 62 | 313 | 0.0 | 0.0 | 0.00 | 0.00 | 0.00 | 58 | 991.9 |
| 20260504234426 | 62 | 313 | 0.0 | 0.0 | 0.00 | 0.00 | 0.00 | 57 | 991.9 |
| 20260504233926 | 62 | 313 | 0.0 | 1.0 | 0.00 | 0.00 | 0.00 | 56 | 991.8 |
| 20260504232420 | 64 | 313 | 0.0 | 1.0 | 0.00 | 0.00 | 0.00 | 54 | 991.5 |
| 20260504231914 | 64 | 313 | 0.0 | 1.0 | 0.00 | 0.00 | 0.00 | 53 | 991.5 |
| 20260504231409 | 65 | 313 | 0.0 | 1.0 | 0.00 | 0.00 | 0.00 | 54 | 991.4 |
| 20260504230903 | 65 | 313 | 0.0 | 1.0 | 0.00 | 0.00 | 0.00 | 53 | 991.4 |
| 20260504230357 | 65 | 313 | 0.0 | 1.0 | 0.00 | 0.00 | 0.00 | 50 | 991.4 |
| 20260504225851 | 66 | 313 | 0.0 | 1.0 | 0.00 | 0.00 | 0.00 | 52 | 991.4 |
| 20260504225345 | 66 | 313 | 0.0 | 1.0 | 0.00 | 0.00 | 0.00 | 51 | 991.3 |
| 20260504224839 | 67 | 313 | 0.0 | 1.0 | 0.00 | 0.00 | 0.00 | 50 | 991.3 |
| 20260504224333 | 67 | 313 | 1.0 | 3.0 | 0.00 | 0.00 | 0.00 | 49 | 991.1 |
| 20260504223321 | 68 | 311 | 0.0 | 2.0 | 0.00 | 0.00 | 0.00 | 45 | 990.9 |
| 20260504222814 | 68 | 311 | 0.0 | 2.0 | 0.00 | 0.00 | 0.00 | 45 | 990.9 |
| 20260504222309 | 69 | 311 | 0.0 | 2.0 | 0.00 | 0.00 | 0.00 | 44 | 990.9 |
| 20260504221256 | 69 | 311 | 1.0 | 4.0 | 0.00 | 0.00 | 0.00 | 40 | 990.9 |
| 20260504220750 | 69 | 312 | 1.0 | 4.0 | 0.00 | 0.00 | 0.00 | 41 | 990.9 |
| 20260504220245 | 69 | 292 | 1.0 | 3.0 | 0.00 | 0.00 | 0.00 | 42 | 990.9 |
| 20260504215738 | 69 | 289 | 1.0 | 4.0 | 0.00 | 0.00 | 0.00 | 41 | 990.9 |
| 20260504215233 | 69 | 289 | 1.0 | 4.0 | 0.00 | 0.00 | 0.00 | 38 | 991.0 |
| 20260504214727 | 69 | 298 | 1.0 | 4.0 | 0.00 | 0.00 | 0.00 | 40 | 991.1 |
| 20260504214221 | 69 | 292 | 1.0 | 3.0 | 0.00 | 0.00 | 0.00 | 42 | 991.0 |
| 20260504213714 | 70 | 292 | 1.0 | 3.0 | 0.00 | 0.00 | 0.00 | 39 | 991.0 |
| 20260504213209 | 70 | 287 | 2.0 | 5.0 | 0.00 | 0.00 | 0.00 | 39 | 991.0 |
| 20260504212703 | 70 | 287 | 2.0 | 5.0 | 0.00 | 0.00 | 0.00 | 37 | 991.0 |
| 20260504212156 | 70 | 339 | 2.0 | 6.0 | 0.00 | 0.00 | 0.00 | 39 | 990.9 |
| 20260504211650 | 70 | 282 | 2.0 | 6.0 | 0.00 | 0.00 | 0.00 | 37 | 991.0 |
| 20260504210133 | 70 | 307 | 2.0 | 4.0 | 0.00 | 0.00 | 0.00 | 40 | 991.1 |
| 20260504205627 | 70 | 242 | 2.0 | 3.0 | 0.00 | 0.00 | 0.00 | 38 | 991.1 |
| 20260504205120 | 70 | 290 | 2.0 | 4.0 | 0.00 | 0.00 | 0.00 | 38 | 991.1 |
| 20260504204615 | 70 | 308 | 1.0 | 5.0 | 0.00 | 0.00 | 0.00 | 40 | 991.0 |
| 20260504204109 | 70 | 290 | 1.0 | 5.0 | 0.00 | 0.00 | 0.00 | 39 | 991.0 |
| 20260504202550 | 71 | 308 | 2.0 | 4.0 | 0.00 | 0.00 | 0.00 | 38 | 991.0 |
| 20260504202044 | 70 | 289 | 2.0 | 6.0 | 0.00 | 0.00 | 0.00 | 38 | 991.1 |
| 20260504201539 | 70 | 5 | 2.0 | 6.0 | 0.00 | 0.00 | 0.00 | 38 | 991.2 |
| 20260504200527 | 71 | 302 | 2.0 | 4.0 | 0.00 | 0.00 | 0.00 | 36 | 991.3 |
| 20260504200021 | 71 | 310 | 2.0 | 4.0 | 0.00 | 0.00 | 0.00 | 38 | 991.3 |
| 20260504195514 | 71 | 245 | 3.0 | 6.0 | 0.00 | 0.00 | 0.00 | 36 | 991.3 |
| 20260504195008 | 71 | 303 | 3.0 | 6.0 | 0.00 | 0.00 | 0.00 | 35 | 991.3 |
| 20260504194503 | 71 | 296 | 3.0 | 5.0 | 0.00 | 0.00 | 0.00 | 36 | 991.2 |
| 20260504193957 | 72 | 314 | 3.0 | 6.0 | 0.00 | 0.00 | 0.00 | 37 | 991.1 |
| 20260504193450 | 72 | 303 | 2.0 | 6.0 | 0.00 | 0.00 | 0.00 | 35 | 991.1 |
| 20260504192944 | 71 | 300 | 1.0 | 4.0 | 0.00 | 0.00 | 0.00 | 37 | 991.1 |
| 20260504192439 | 71 | 306 | 2.0 | 5.0 | 0.00 | 0.00 | 0.00 | 38 | 991.1 |
| 20260504191933 | 71 | 308 | 2.0 | 5.0 | 0.00 | 0.00 | 0.00 | 37 | 991.2 |
| 20260504191426 | 71 | 11 | 3.0 | 10.0 | 0.00 | 0.00 | 0.00 | 38 | 991.2 |
| 20260504190921 | 71 | 269 | 3.0 | 10.0 | 0.00 | 0.00 | 0.00 | 36 | 991.3 |
| 20260504190415 | 71 | 290 | 2.0 | 5.0 | 0.00 | 0.00 | 0.00 | 38 | 991.2 |
| 20260504185908 | 70 | 309 | 2.0 | 6.0 | 0.00 | 0.00 | 0.00 | 39 | 991.2 |
| 20260504185403 | 70 | 303 | 3.0 | 6.0 | 0.00 | 0.00 | 0.00 | 38 | 991.2 |
| 20260504184857 | 70 | 298 | 2.0 | 5.0 | 0.00 | 0.01 | 0.00 | 39 | 991.3 |
| 20260504184350 | 69 | 298 | 2.0 | 5.0 | 0.00 | 0.01 | 0.00 | 40 | 991.3 |
| 20260504183844 | 69 | 241 | 2.0 | 5.0 | 0.00 | 0.01 | 0.00 | 39 | 991.2 |
| 20260504183339 | 68 | 330 | 2.0 | 5.0 | 0.00 | 0.01 | 0.00 | 42 | 991.3 |
| 20260504182833 | 67 | 292 | 2.0 | 3.0 | 0.00 | 0.01 | 0.00 | 43 | 991.5 |
| 20260504182326 | 67 | 292 | 2.0 | 3.0 | 0.00 | 0.01 | 0.00 | 43 | 991.6 |
| 20260504181821 | 67 | 315 | 2.0 | 4.0 | 0.00 | 0.01 | 0.00 | 42 | 991.6 |
| 20260504181315 | 67 | 315 | 2.0 | 4.0 | 0.00 | 0.01 | 0.00 | 41 | 991.6 |
| 20260504180808 | 66 | 22 | 2.0 | 6.0 | 0.00 | 0.01 | 0.00 | 43 | 991.6 |
| 20260504180303 | 67 | 311 | 3.0 | 6.0 | 0.00 | 0.01 | 0.00 | 41 | 991.7 |
| 20260504175757 | 67 | 309 | 3.0 | 5.0 | 0.00 | 0.01 | 0.00 | 39 | 991.7 |
| 20260504175250 | 67 | 311 | 2.0 | 5.0 | 0.00 | 0.01 | 0.00 | 41 | 991.8 |